Regional Weather Roundup
Issued by NWS Northern Indiana

Home | Current Version | Previous Version | Graphics & Text | Print | Product List | Glossary On
Versions: 1 2 3 4 5 6 7 8 9 10 11 12 13 14 15 16 17 18 19 20 21 22 23 24 25 26 27 28 29 30 31 32 33 34 35 36 37 38 39 40 41 42 43 44 45 46 47 48 49 50
000
ASUS43 KIWX 290200
RWRIWX

KIWX WEATHER ROUNDUP
NATIONAL WEATHER SERVICE NORTHERN INDIANA
1000 PM EDT THU AUG 28 2014

NOTE: "FAIR" INDICATES FEW OR NO CLOUDS BELOW 12,000 FEET WITH NO
SIGNIFICANT WEATHER AND/OR OBSTRUCTIONS TO VISIBILITY.

* THESE STATIONS ARE NOT UNDER NWS QUALITY CONTROL. THEY ALSO MAY NOT
  REPORT WEATHER SUCH AS PRECIPITATION OR FOG.

INZ001>027-290300-
NORTHERN INDIANA

CITY           SKY/WX    TMP DP  RH WIND       PRES   REMARKS
GARY*          CLOUDY    73  64  73 NE5       30.06S
VALPARAISO     PTCLDY    68  65  90 NE3       30.07S
SOUTH BEND     PTCLDY    73  61  65 SE6       30.08S
GOSHEN         CLEAR     69  64  84 E3        30.09R
MONTICELLO*    PTCLDY    72  66  82 E5        30.05S
ANGOLA*        MOCLDY    68  61  77 SE5       30.11S
FORT WAYNE     PTCLDY    67  62  84 E6        30.10S
PERU/GRISSOM   CLEAR     71  68  90 E6        30.07R

$$
INZ028>050-290300-
CENTRAL INDIANA

CITY           SKY/WX    TMP DP  RH WIND       PRES   REMARKS
LAFAYETTE      PTCLDY    72  65  78 E9        30.04R
KOKOMO*        CLEAR     68  64  88 E7        30.08R
MUNCIE*        CLEAR     68  64  87 E6        30.09R
INDIANAPOLIS   PTCLDY    77  65  66 E7        30.05R

$$
MIZ043>046-050>051-056>058-064>065-071>073-077>080-290300-
SOUTHWEST LOWER MICHIGAN

CITY           SKY/WX    TMP DP  RH WIND       PRES   REMARKS
BATTLE CREEK   PTCLDY    67  53  61 E6        30.12R
BENTON HARBOR  MOCLDY    68  59  73 E7        30.08R
COLDWATER*     PTCLDY    68  57  69 E6        30.12R
HILLSDALE*     PTCLDY    62  58  89 E3        30.13R
HOLLAND        MOCLDY    67  54  63 E6        30.10S
GRAND RAPIDS   CLOUDY    65  57  75 E6        30.12R
KALAMAZOO      PTCLDY    67  56  67 CALM      30.12R
STURGIS*         N/A     66  61  82 E6        30.10S
THREE RIVERS*  FAIR      68  60  74 E7        30.11R

$$
OHZ001>008-015>018-024>025-290300-
NORTHWEST OHIO

CITY           SKY/WX    TMP DP  RH WIND       PRES   REMARKS
DEFIANCE       PTCLDY    67  57  70 E6        30.12R
FINDLAY        PTCLDY    65  56  72 E8        30.12S
TOLEDO EXPRESS PTCLDY    63  56  78 E6        30.13R
TOLEDO METCALF PTCLDY    61  55  81 E6        30.14R
LIMA           CLEAR     65  59  81 E8        30.12S

$$
&&


USA.gov is the U.S. government's official web portal to all federal, state and local government web resources and services.